KD2BVA Weather Reports


Display with metric or nautical units.
time (UTC)temp
F
wind
direction
speed
MPH
gust
MPH
rain 1hr
in
rain 24hr
in
rain mn
in
humidity
%
barometer
mb
20260509031021 35 231 0.0 0.0 0.00 0.00 0.00 92 997.8
20260509030533 35 231 0.0 0.0 0.00 0.00 0.00 92 997.8
20260509030033 35 231 0.0 0.0 0.00 0.00 0.00 92 997.8
20260509025523 35 231 0.0 0.0 0.00 0.00 0.00 92 997.8
20260509025033 35 231 0.0 0.0 0.00 0.00 0.00 91 997.7
20260509024535 35 231 0.0 0.0 0.00 0.00 0.00 90 997.8
20260509024024 35 231 0.0 0.0 0.00 0.00 0.00 90 997.7
20260509023527 35 231 0.0 0.0 0.00 0.00 0.00 89 997.7
20260509023037 35 231 0.0 0.0 0.00 0.00 0.00 89 997.7
20260509022526 36 231 0.0 0.0 0.00 0.00 0.00 88 997.6
20260509022027 36 231 0.0 0.0 0.00 0.00 0.00 88 997.5
20260509021525 36 231 0.0 0.0 0.00 0.00 0.00 87 997.5
20260509021026 37 231 0.0 0.0 0.00 0.00 0.00 87 997.5
20260509020533 37 231 0.0 0.0 0.00 0.00 0.00 86 997.5
20260509020022 38 231 0.0 0.0 0.00 0.00 0.00 86 997.5
20260509015522 38 231 0.0 0.0 0.00 0.00 0.00 84 997.4
20260509015032 38 231 0.0 0.0 0.00 0.00 0.00 84 997.3
20260509014542 39 231 0.0 0.0 0.00 0.00 0.00 84 997.3
20260509014023 39 231 0.0 0.0 0.00 0.00 0.00 84 997.1
20260509013534 39 231 0.0 0.0 0.00 0.00 0.00 84 997.2
20260509013043 39 231 0.0 0.0 0.00 0.00 0.00 83 997.1
20260509012523 39 231 0.0 0.0 0.00 0.00 0.00 83 997.1
20260509012034 40 231 0.0 0.0 0.00 0.00 0.00 83 997.0
20260509011544 40 231 0.0 0.0 0.00 0.00 0.00 82 996.9
20260509011023 40 231 0.0 0.0 0.00 0.00 0.00 81 996.8
20260509010524 40 231 0.0 0.0 0.00 0.00 0.00 80 996.7
20260509010032 40 231 0.0 0.0 0.00 0.00 0.00 78 996.6
20260509005542 41 231 0.0 0.0 0.00 0.00 0.00 75 996.6
20260509005022 41 231 0.0 0.0 0.00 0.00 0.00 76 996.5
20260509004533 42 231 0.0 0.0 0.00 0.00 0.00 74 996.4
20260509004030 42 231 0.0 0.0 0.00 0.00 0.00 73 996.3
20260509003521 43 231 0.0 0.0 0.00 0.00 0.00 71 996.2
20260509003030 44 231 0.0 0.0 0.00 0.00 0.00 70 996.2
20260509002530 45 231 0.0 0.0 0.00 0.00 0.00 67 996.1
20260509002020 45 231 0.0 0.0 0.00 0.00 0.00 66 996.1
20260509001530 46 231 0.0 0.0 0.00 0.00 0.00 64 996.1
20260509001031 47 231 0.0 0.0 0.00 0.00 0.00 62 996.1
20260509000522 48 231 0.0 0.0 0.00 0.00 0.00 60 996.1
20260509000021 49 231 0.0 1.0 0.00 0.00 0.00 59 996.2
20260508235531 49 231 0.0 1.0 0.00 0.00 0.00 57 996.2
20260508235021 50 231 0.0 3.0 0.00 0.00 0.00 57 996.1
20260508234522 50 185 0.0 3.0 0.00 0.00 0.00 56 996.1
20260508234031 51 237 0.0 2.0 0.00 0.00 0.00 55 996.0
20260508233523 51 227 0.0 2.0 0.00 0.00 0.00 55 995.9
20260508233022 51 226 0.0 1.0 0.00 0.00 0.00 55 995.9
20260508232532 52 261 0.0 4.0 0.00 0.00 0.00 53 995.8
20260508232043 52 252 0.0 4.0 0.00 0.00 0.00 52 995.8
20260508231523 52 224 1.0 3.0 0.00 0.00 0.00 53 995.8
20260508231033 52 250 1.0 3.0 0.00 0.00 0.00 53 995.8
20260508230541 53 132 1.0 3.0 0.00 0.00 0.00 54 995.8
20260508230020 53 289 1.0 5.0 0.00 0.00 0.00 53 995.7
20260508225529 53 242 0.0 5.0 0.00 0.00 0.00 53 995.7
20260508225026 53 49 1.0 5.0 0.00 0.00 0.00 53 995.6
20260508224536 53 224 1.0 5.0 0.00 0.00 0.00 54 995.6
20260508224021 53 290 1.0 3.0 0.00 0.00 0.00 53 995.5
20260508223523 53 274 1.0 2.0 0.00 0.00 0.00 52 995.6
20260508223031 54 194 0.0 5.0 0.00 0.00 0.00 53 995.5
20260508222521 54 256 1.0 9.0 0.00 0.00 0.00 51 995.4
20260508222022 54 271 2.0 9.0 0.00 0.00 0.00 50 995.5
20260508221531 55 93 3.0 6.0 0.00 0.00 0.00 50 995.5
20260508221041 55 157 1.0 7.0 0.00 0.00 0.00 49 995.4
20260508220523 56 131 2.0 7.0 0.00 0.00 0.00 48 995.4
20260508220031 56 231 2.0 7.0 0.00 0.00 0.00 49 995.3
20260508215542 56 141 2.0 7.0 0.00 0.00 0.00 51 995.3
20260508215022 54 287 1.0 6.0 0.00 0.00 0.00 53 995.4
20260508214533 54 329 3.0 7.0 0.00 0.00 0.00 52 995.3
20260508214043 54 239 1.0 10.0 0.00 0.00 0.00 53 995.3
20260508213526 54 251 2.0 7.0 0.00 0.00 0.00 52 995.4
20260508213027 54 146 1.0 5.0 0.00 0.00 0.00 53 995.4
20260508212528 54 235 2.0 10.0 0.00 0.00 0.00 54 995.3
20260508212038 55 87 1.0 5.0 0.00 0.00 0.00 55 995.3
20260508211528 55 248 1.0 9.0 0.00 0.00 0.00 53 995.3
20260508211031 56 222 2.0 9.0 0.00 0.00 0.00 49 995.3
20260508210522 57 233 2.0 9.0 0.00 0.00 0.00 50 995.3
20260508210030 57 139 3.0 10.0 0.00 0.00 0.00 51 995.3
20260508205531 57 225 1.0 10.0 0.00 0.00 0.00 51 995.1
20260508205021 57 28 3.0 9.0 0.00 0.00 0.00 47 995.1
20260508204521 57 265 2.0 6.0 0.00 0.00 0.00 50 995.1
20260508204031 56 349 2.0 11.0 0.00 0.00 0.00 52 995.1
20260508203523 55 186 4.0 11.0 0.00 0.00 0.00 51 995.1
20260508203022 55 271 2.0 10.0 0.00 0.00 0.00 55 995.2
20260508202533 55 238 3.0 10.0 0.00 0.00 0.00 53 995.1
20260508202024 56 191 2.0 12.0 0.00 0.00 0.00 55 995.2
20260508201522 55 29 2.0 8.0 0.00 0.00 0.00 56 995.1
20260508201029 55 268 2.0 8.0 0.00 0.00 0.00 53 995.1
20260508200541 55 257 2.0 6.0 0.00 0.00 0.00 57 995.2
20260508200020 54 135 2.0 7.0 0.00 0.00 0.00 55 995.2
20260508195526 54 229 3.0 7.0 0.00 0.00 0.00 53 995.2
20260508195037 54 269 1.0 10.0 0.00 0.00 0.00 56 995.2
20260508194538 54 221 2.0 10.0 0.00 0.00 0.00 53 995.2
20260508194028 54 277 0.0 3.0 0.00 0.00 0.00 52 995.1
20260508193539 54 311 0.0 1.0 0.00 0.00 0.00 52 995.0
20260508193040 54 350 0.0 1.0 0.00 0.00 0.00 54 995.0
20260508192529 54 351 0.0 5.0 0.00 0.00 0.00 52 995.0
20260508192030 53 331 1.0 5.0 0.00 0.00 0.00 54 995.0
20260508191520 53 344 1.0 3.0 0.00 0.00 0.00 52 995.1
20260508191029 52 255 0.0 2.0 0.00 0.00 0.00 54 995.1
20260508190533 52 185 0.0 3.0 0.00 0.00 0.00 57 995.1
20260508190043 52 97 1.0 3.0 0.00 0.00 0.00 53 995.0
20260508185548 53 222 1.0 2.0 0.00 0.00 0.00 54 994.9
20260508185056 54 4 0.0 4.0 0.00 0.00 0.00 55 995.0
20260508184543 54 2 1.0 7.0 0.00 0.00 0.00 46 995.0
20260508184046 55 126 1.0 7.0 0.00 0.00 0.00 43 994.9
20260508183557 56 288 0.0 8.0 0.00 0.00 0.00 41 995.0
20260508183044 57 70 2.0 8.0 0.00 0.00 0.00 41 995.0
20260508182552 57 198 2.0 6.0 0.00 0.00 0.00 42 994.9
20260508182059 56 245 0.0 5.0 0.00 0.00 0.00 43 994.9
20260508181547 55 259 2.0 5.0 0.00 0.00 0.00 42 995.0
20260508181055 55 249 3.0 5.0 0.00 0.00 0.00 40 995.0
20260508180547 55 237 0.0 3.0 0.00 0.00 0.00 43 995.0
20260508180045 55 281 1.0 4.0 0.00 0.00 0.00 43 995.0
20260508175554 55 46 2.0 3.0 0.00 0.00 0.00 40 995.1
20260508174554 55 269 1.0 6.0 0.00 0.00 0.00 40 995.1
20260508174041 55 234 3.0 6.0 0.00 0.00 0.00 39 995.1
20260508173551 55 229 1.0 4.0 0.00 0.00 0.00 41 995.1
20260508173100 55 251 1.0 7.0 0.00 0.00 0.00 43 995.2
20260508172544 54 194 2.0 7.0 0.00 0.00 0.00 40 995.2
20260508172048 54 250 2.0 5.0 0.00 0.00 0.00 41 995.2
20260508171600 54 269 2.0 5.0 0.00 0.00 0.00 40 995.3
20260508171047 54 253 1.0 5.0 0.00 0.00 0.00 41 995.3
20260508170556 54 219 1.0 5.0 0.00 0.00 0.00 41 995.3
20260508170043 54 281 1.0 5.0 0.00 0.00 0.00 39 995.3
20260508165550 54 293 2.0 5.0 0.00 0.00 0.00 40 995.3
20260508165039 54 342 1.0 3.0 0.00 0.00 0.00 41 995.3
20260508164520 54 238 0.0 5.0 0.00 0.00 0.00 41 995.3
20260508164029 54 251 1.0 4.0 0.00 0.00 0.00 41 995.2
20260508163531 54 257 0.0 4.0 0.00 0.00 0.00 43 995.1
20260508163037 54 307 0.0 6.0 0.00 0.00 0.00 42 995.1
20260508162523 54 257 0.0 6.0 0.00 0.00 0.00 41 995.3
20260508162019 54 219 0.0 6.0 0.00 0.00 0.00 42 995.4
20260508161529 54 259 2.0 6.0 0.00 0.00 0.00 41 995.5
20260508161039 53 244 1.0 5.0 0.00 0.00 0.00 45 995.5
20260508160551 53 235 2.0 4.0 0.00 0.00 0.00 41 995.5
20260508160029 53 267 1.0 5.0 0.00 0.00 0.00 39 995.5
20260508155539 53 146 2.0 7.0 0.00 0.00 0.00 40 995.5
20260508155039 53 29 3.0 7.0 0.00 0.00 0.00 39 995.6
20260508154531 53 219 1.0 3.0 0.00 0.00 0.00 41 995.6
20260508154040 53 282 1.0 4.0 0.00 0.00 0.00 40 995.6
20260508153540 53 61 1.0 6.0 0.00 0.00 0.00 42 995.6
20260508153028 53 293 2.0 6.0 0.00 0.00 0.00 40 995.6
20260508152528 53 258 2.0 6.0 0.00 0.00 0.00 40 995.5
20260508152038 54 144 1.0 6.0 0.00 0.00 0.00 40 995.4
20260508151525 54 84 1.0 7.0 0.00 0.00 0.00 39 995.5
20260508151025 54 212 0.0 3.0 0.00 0.00 0.00 41 995.5
20260508150537 55 197 2.0 3.0 0.00 0.00 0.00 41 995.4
20260508150025 54 298 0.0 5.0 0.00 0.00 0.00 40 995.4
20260508145525 55 313 2.0 5.0 0.00 0.00 0.00 38 995.4
20260508145031 55 281 2.0 6.0 0.00 0.00 0.00 38 995.4
20260508144542 56 356 2.0 6.0 0.00 0.00 0.00 41 995.4
20260508144022 56 283 1.0 7.0 0.00 0.00 0.00 42 995.3
20260508143534 55 253 1.0 6.0 0.00 0.00 0.00 43 995.2
20260508143043 55 24 2.0 6.0 0.00 0.00 0.00 37 995.2
20260508142524 55 311 1.0 5.0 0.00 0.00 0.00 43 995.3
20260508142035 55 226 1.0 6.0 0.00 0.00 0.00 40 995.3
20260508141544 54 270 1.0 10.0 0.00 0.00 0.00 42 995.4
20260508141022 54 259 1.0 10.0 0.00 0.00 0.00 43 995.4
20260508140534 54 336 2.0 4.0 0.00 0.00 0.00 44 995.5
20260508140043 53 139 1.0 3.0 0.00 0.00 0.00 42 995.6
20260508135524 53 316 0.0 6.0 0.00 0.00 0.00 44 995.7
20260508135035 52 13 1.0 9.0 0.00 0.00 0.00 45 995.8
20260508134545 52 201 3.0 10.0 0.00 0.00 0.00 44 995.8
20260508134055 52 292 3.0 10.0 0.00 0.00 0.00 43 995.8
20260508133556 52 333 1.0 7.0 0.00 0.00 0.00 47 995.9
20260508133104 51 214 1.0 7.0 0.00 0.00 0.00 49 995.9
20260508132543 50 56 2.0 7.0 0.00 0.00 0.00 48 995.9
20260508132059 50 233 3.0 9.0 0.00 0.00 0.00 52 996.0
20260508131609 50 238 2.0 7.0 0.00 0.00 0.00 51 996.0
20260508131048 49 274 2.0 6.0 0.00 0.00 0.00 51 996.1
20260508130610 49 304 2.0 6.0 0.00 0.00 0.00 54 996.1
20260508130047 48 290 2.0 6.0 0.00 0.00 0.00 55 996.1
20260508125550 48 318 1.0 5.0 0.00 0.00 0.00 58 996.1
20260508125058 47 4 2.0 5.0 0.00 0.00 0.00 57 996.1
20260508124545 46 325 1.0 5.0 0.00 0.00 0.00 62 996.0
20260508124033 46 328 1.0 5.0 0.00 0.00 0.00 65 996.1
20260508123545 45 280 1.0 3.0 0.00 0.00 0.00 71 996.1
20260508123025 44 268 1.0 2.0 0.00 0.00 0.00 72 996.1
20260508122531 43 210 0.0 1.0 0.00 0.00 0.00 78 996.1
20260508122041 43 247 0.0 0.0 0.00 0.00 0.00 82 996.1
20260508121521 43 247 0.0 0.0 0.00 0.00 0.00 85 996.1
20260508121031 43 247 0.0 0.0 0.00 0.00 0.00 86 996.1
20260508120543 43 247 0.0 0.0 0.00 0.00 0.00 88 996.1
20260508120022 43 247 0.0 0.0 0.00 0.00 0.00 90 996.1
20260508115531 42 247 0.0 1.0 0.00 0.00 0.00 92 996.1
20260508115033 42 247 0.0 1.0 0.00 0.00 0.00 93 996.1
20260508114522 42 247 0.0 1.0 0.00 0.00 0.00 94 996.1
20260508114034 41 247 0.0 0.0 0.00 0.00 0.00 95 996.0
20260508113540 40 247 0.0 0.0 0.00 0.00 0.00 95 996.0
20260508113048 40 247 0.0 0.0 0.00 0.00 0.00 96 996.0
20260508112528 40 247 0.0 0.0 0.00 0.00 0.00 96 996.0
20260508112037 39 247 0.0 0.0 0.00 0.00 0.00 96 996.0
20260508111526 39 247 0.0 0.0 0.00 0.00 0.00 96 995.9
20260508111035 39 247 0.0 1.0 0.00 0.00 0.00 96 995.9
20260508110525 38 247 0.0 1.0 0.00 0.00 0.00 97 995.8
20260508110025 38 247 0.0 0.0 0.00 0.00 0.00 97 995.9
20260508105532 38 247 0.0 0.0 0.00 0.00 0.00 97 995.7
20260508105020 38 247 0.0 0.0 0.00 0.00 0.00 97 995.8
20260508104526 37 247 0.0 0.0 0.00 0.00 0.00 97 995.8
20260508104034 37 247 0.0 0.0 0.00 0.00 0.00 97 995.7
20260508103546 37 247 0.0 0.0 0.00 0.00 0.00 97 995.7
20260508103051 37 247 0.0 0.0 0.00 0.00 0.00 97 995.6
20260508102558 36 247 0.0 0.0 0.00 0.00 0.00 97 995.5
20260508102109 36 247 0.0 0.0 0.00 0.00 0.00 96 995.5
20260508101548 36 247 0.0 0.0 0.00 0.00 0.00 96 995.5
20260508101107 36 247 0.0 0.0 0.00 0.00 0.00 96 995.5
20260508100550 36 247 0.0 0.0 0.00 0.00 0.00 96 995.4
20260508100053 36 247 0.0 0.0 0.00 0.00 0.00 96 995.3
20260508095541 36 247 0.0 1.0 0.00 0.00 0.00 96 995.3
20260508095049 35 247 0.0 1.0 0.00 0.00 0.00 96 995.2
20260508094558 35 247 0.0 0.0 0.00 0.00 0.00 96 995.2
20260508094045 35 247 0.0 0.0 0.00 0.00 0.00 96 995.2
20260508093555 35 247 0.0 0.0 0.00 0.00 0.00 96 995.2
20260508093052 35 247 0.0 0.0 0.00 0.00 0.00 96 995.0
20260508092557 36 247 0.0 0.0 0.00 0.00 0.00 96 995.2
20260508092044 36 247 0.0 0.0 0.00 0.00 0.00 96 995.1
20260508091552 36 247 0.0 0.0 0.00 0.00 0.00 96 995.0
20260508091100 36 247 0.0 0.0 0.00 0.00 0.00 96 994.9
20260508090551 36 247 0.0 0.0 0.00 0.00 0.00 96 994.9
20260508090058 36 247 0.0 0.0 0.00 0.00 0.00 96 994.8
20260508085546 36 247 0.0 0.0 0.00 0.00 0.00 96 994.9
20260508085051 36 247 0.0 0.0 0.00 0.00 0.00 96 994.8
20260508084555 36 247 0.0 0.0 0.00 0.00 0.00 96 994.9
20260508084042 36 247 0.0 0.0 0.00 0.00 0.00 96 994.9
20260508083552 35 247 0.0 0.0 0.00 0.00 0.00 96 995.0
20260508083100 35 247 0.0 0.0 0.00 0.00 0.00 96 995.0
20260508082544 35 247 0.0 0.0 0.00 0.00 0.00 96 994.9
20260508082052 35 247 0.0 0.0 0.00 0.00 0.00 96 994.9
20260508081559 35 247 0.0 0.0 0.00 0.00 0.00 96 994.9
20260508081046 35 247 0.0 0.0 0.00 0.00 0.00 96 994.9
20260508080553 35 247 0.0 0.0 0.00 0.00 0.00 96 994.8
20260508080058 35 247 0.0 0.0 0.00 0.00 0.00 96 994.8
20260508075545 35 247 0.0 0.0 0.00 0.00 0.00 96 994.8
20260508075053 35 247 0.0 0.0 0.00 0.00 0.00 96 994.7
20260508074541 35 247 0.0 0.0 0.00 0.00 0.00 96 994.7
20260508074049 35 247 0.0 0.0 0.00 0.00 0.00 96 994.7
20260508073602 35 247 0.0 0.0 0.00 0.00 0.00 96 994.6
20260508073049 35 247 0.0 0.0 0.00 0.00 0.00 96 994.6
20260508072554 35 247 0.0 0.0 0.00 0.00 0.00 96 994.6
20260508072043 35 247 0.0 0.0 0.00 0.00 0.00 96 994.6
20260508071524 35 247 0.0 0.0 0.00 0.00 0.00 96 994.6
20260508071034 35 247 0.0 0.0 0.00 0.00 0.00 96 994.5
20260508070524 35 247 0.0 0.0 0.00 0.00 0.00 96 994.5
20260508070024 34 247 0.0 1.0 0.00 0.00 0.00 96 994.5
20260508065535 34 247 0.0 1.0 0.00 0.00 0.00 96 994.5
20260508065044 34 247 0.0 0.0 0.00 0.00 0.00 96 994.5
20260508064525 34 247 0.0 0.0 0.00 0.00 0.00 96 994.5
20260508064035 34 247 0.0 0.0 0.00 0.00 0.00 96 994.6
20260508063547 33 247 0.0 0.0 0.00 0.00 0.00 96 994.6
20260508063027 33 247 0.0 0.0 0.00 0.00 0.00 96 994.7
20260508062538 33 247 0.0 0.0 0.00 0.00 0.00 96 994.6
20260508062047 33 247 0.0 0.0 0.00 0.00 0.00 96 994.7
20260508061525 32 247 0.0 0.0 0.00 0.00 0.00 95 994.6
20260508061036 32 247 0.0 0.0 0.00 0.00 0.00 95 994.6
20260508060522 32 247 0.0 0.0 0.00 0.00 0.00 95 994.7
20260508060030 32 247 0.0 0.0 0.00 0.00 0.00 95 994.7
20260508055530 32 247 0.0 0.0 0.00 0.00 0.00 95 994.8
20260508055020 32 247 0.0 0.0 0.00 0.00 0.00 95 994.8
20260508054531 32 247 0.0 0.0 0.00 0.00 0.00 94 994.8
20260508054037 32 247 0.0 0.0 0.00 0.00 0.00 94 994.9
20260508053541 32 247 0.0 0.0 0.00 0.00 0.00 94 994.8
20260508053029 32 247 0.0 0.0 0.00 0.00 0.00 94 994.8
20260508052537 32 247 0.0 0.0 0.00 0.00 0.00 94 994.8
20260508052047 33 247 0.0 0.0 0.00 0.00 0.00 94 994.9
20260508051524 33 247 0.0 0.0 0.00 0.00 0.00 94 995.0
20260508051035 33 247 0.0 0.0 0.00 0.00 0.00 94 994.9
20260508050546 33 247 0.0 0.0 0.00 0.00 0.00 94 994.9
20260508050025 33 247 0.0 0.0 0.00 0.00 0.00 94 994.8
20260508045536 33 247 0.0 0.0 0.00 0.00 0.00 93 994.7
20260508045032 33 247 0.0 0.0 0.00 0.00 0.00 93 994.7
20260508044521 33 247 0.0 0.0 0.00 0.00 0.00 93 994.6
20260508044033 33 247 0.0 0.0 0.00 0.00 0.00 93 994.7
20260508043534 33 247 0.0 0.0 0.00 0.00 0.00 92 994.7
20260508043022 34 247 0.0 0.0 0.00 0.00 0.00 92 994.7
20260508042523 34 247 0.0 0.0 0.00 0.00 0.00 92 994.8
20260508042034 34 247 0.0 0.0 0.00 0.00 0.00 92 994.8
20260508041523 34 247 0.0 0.0 0.00 0.00 0.00 92 994.8
20260508041024 34 247 0.0 0.0 0.00 0.00 0.00 91 994.8
20260508040537 34 247 0.0 0.0 0.00 0.00 0.00 91 994.8
20260508040042 34 247 0.0 0.0 0.00 0.00 0.00 90 994.8
20260508035522 34 247 0.0 0.0 0.00 0.00 0.00 90 994.8
20260508035032 34 247 0.0 0.0 0.00 0.00 0.00 90 994.9
20260508034543 34 247 0.0 0.0 0.00 0.00 0.00 89 994.9
20260508034025 34 247 0.0 0.0 0.00 0.00 0.00 88 994.9
20260508033536 34 247 0.0 0.0 0.00 0.00 0.00 88 994.8
20260508033044 34 247 0.0 0.0 0.00 0.00 0.00 87 994.8
20260508032525 35 247 0.0 0.0 0.00 0.00 0.00 87 994.8
20260508032036 35 247 0.0 0.0 0.00 0.00 0.00 87 994.9
20260508031532 35 247 0.0 0.0 0.00 0.00 0.00 86 994.8